Location: *
(45.9500°N, 9.0833°E)
Time: 08:46:48
(UTC+00:00)

S-56A Canister/Altair - All Passes

Search period start: 15 June 2021 00:00
Search period end: 25 June 2021 00:00
Orbit: 632 x 2500 km, 38.9° (Epoch: 14 June)

Date Brightness Start Highest point End Pass type
(mag) Time Alt. Az. Time Alt. Az. Time Alt. Az.
15 Jun - 05:11:11 10° SSW 05:15:00 24° SSE 05:19:38 10° E daylight
15 Jun - 07:12:53 10° WSW 07:17:58 45° S 07:25:11 10° ESE daylight
15 Jun - 09:15:40 10° W 09:21:41 40° SSW 09:30:26 10° SE daylight
15 Jun - 11:19:48 10° WSW 11:25:45 22° SSW 11:33:25 10° SSE daylight
16 Jun - 04:39:09 10° SSW 04:42:34 20° SSE 04:46:30 10° ESE daylight
16 Jun - 06:40:38 10° WSW 06:45:24 42° S 06:51:58 10° ESE daylight
16 Jun - 08:43:19 10° W 08:48:57 40° S 08:57:06 10° SE daylight
16 Jun - 10:47:11 10° WSW 10:52:54 23° SSW 11:00:23 10° SSE daylight
17 Jun - 04:07:11 10° SSW 04:10:08 17° SSE 04:13:23 10° ESE daylight
17 Jun - 06:08:22 10° WSW 06:12:52 39° S 06:18:49 10° ESE daylight
17 Jun - 08:10:59 10° WSW 08:16:17 40° S 08:23:50 10° ESE daylight
17 Jun - 10:14:38 10° WSW 10:20:06 23° SSW 10:27:20 10° SSE daylight
18 Jun - 03:35:19 10° S 03:37:42 14° SSE 03:40:14 10° ESE daylight
18 Jun - 05:36:08 10° SW 05:40:23 36° SSE 05:45:45 10° ESE daylight
18 Jun - 07:38:40 10° WSW 07:43:39 40° S 07:50:37 10° ESE daylight
18 Jun - 09:42:09 10° WSW 09:47:21 24° SSW 09:54:17 10° SSE daylight
19 Jun - 03:03:37 10° S 03:05:17 12° SSE 03:06:58 10° SE daylight
19 Jun - 05:03:52 10° SW 05:07:55 33° SSE 05:12:47 10° ESE daylight
19 Jun - 07:06:22 10° WSW 07:11:04 39° S 07:17:29 10° ESE daylight
19 Jun - 09:09:41 10° WSW 09:14:38 25° SSW 09:21:13 10° SSE daylight
20 Jun - 04:31:35 10° SW 04:35:28 30° SSE 04:39:53 10° ESE daylight
20 Jun - 06:34:03 10° WSW 06:38:32 39° S 06:44:25 10° ESE daylight
20 Jun - 08:37:16 10° WSW 08:41:58 25° SSW 08:48:12 10° SSE daylight
21 Jun - 03:59:17 10° SW 04:03:02 27° SSE 04:07:04 10° ESE daylight
21 Jun - 06:01:44 10° WSW 06:06:01 38° S 06:11:27 10° ESE daylight
21 Jun - 08:04:53 10° WSW 08:09:21 26° SSW 08:15:12 10° SE daylight
22 Jun - 03:26:58 10° SW 03:30:36 24° SSE 03:34:20 10° ESE daylight
22 Jun - 05:29:23 10° WSW 05:33:32 37° S 05:38:32 10° ESE daylight
22 Jun - 07:32:30 10° WSW 07:36:45 26° SSW 07:42:16 10° SE daylight
22 Jun - 09:38:54 10° SW 09:40:13 11° SSW 09:41:37 10° SSW daylight
23 Jun - 02:54:36 10° SSW 02:58:09 22° SSE 03:01:38 10° ESE visible
23 Jun - 04:57:00 10° WSW 05:01:04 36° S 05:05:44 10° ESE daylight
23 Jun - 07:00:07 10° WSW 07:04:13 27° SSW 07:09:22 10° SE daylight
23 Jun - 09:05:48 10° SW 09:07:35 11° SSW 09:09:30 10° SSW daylight
24 Jun - 02:22:12 10° SSW 02:25:42 20° SSE 02:29:00 10° ESE visible
24 Jun - 04:24:34 10° WSW 04:28:37 35° S 04:33:00 10° ESE daylight
24 Jun - 06:27:44 10° WSW 06:31:42 28° SSW 06:36:33 10° SE daylight
24 Jun - 08:32:55 10° SW 08:34:58 12° SSW 08:37:12 10° S daylight
